ATD359 KDCA-KORD

Flight info

Callsign ATD359
Flight time 1h 41m
Altitude 30000
Route AMEEE1 SCOOB ROD WATSN4
Aircraft A20N/M-SDE2E3FGHIRWXY/LB1

Departure

Time 2026-05-05 21:41
Airport Ronald Reagan Washington National Airport (KDCA)

Arrival

Time 2026-05-05 23:23
Airport Chicago O'Hare International Airport (KORD)
Time Latitude Longitude Altitude Speed Heading
2026-05-05 21:30 38.85884 -77.03850 24 ft 0 kts 175°
2026-05-05 21:31 38.85878 -77.03849 28 ft 9 kts 175°
2026-05-05 21:31 38.85770 -77.03841 23 ft 19 kts 178°
2026-05-05 21:31 38.85718 -77.03914 27 ft 14 kts 311°
2026-05-05 21:32 38.85804 -77.03981 29 ft 17 kts 348°
2026-05-05 21:32 38.85934 -77.04007 25 ft 19 kts 333°
2026-05-05 21:32 38.85996 -77.04021 25 ft 0 kts 13°
2026-05-05 21:39 38.85998 -77.04020 23 ft 2 kts 13°
2026-05-05 21:39 38.86038 -77.03995 22 ft 11 kts 38°
2026-05-05 21:39 38.86086 -77.03897 20 ft 9 kts 101°
2026-05-05 21:40 38.86052 -77.03866 20 ft 2 kts 171°
2026-05-05 21:40 38.86047 -77.03866 20 ft 0 kts 174°
2026-05-05 21:40 38.85894 -77.03852 26 ft 70 kts 176°
2026-05-05 21:41 38.85087 -77.03778 74 ft 155 kts 177°
2026-05-05 21:41 38.83858 -77.03596 500 ft 200 kts 173°
2026-05-05 21:41 38.82281 -77.03172 698 ft 262 kts 169°
2026-05-05 21:41 38.80372 -77.02580 932 ft 299 kts 167°
2026-05-05 21:42 38.78285 -77.01801 1443 ft 331 kts 163°
2026-05-05 21:42 38.76073 -77.00534 1792 ft 366 kts 155°
2026-05-05 21:42 38.73843 -76.98953 3189 ft 361 kts 155°
2026-05-05 21:42 38.71679 -76.97259 4507 ft 367 kts 151°
2026-05-05 21:43 38.69558 -76.95481 5737 ft 371 kts 151°
2026-05-05 21:43 38.67389 -76.93663 6932 ft 376 kts 153°
2026-05-05 21:43 38.65089 -76.91989 7839 ft 375 kts 156°
2026-05-05 21:43 38.62875 -76.90268 8651 ft 376 kts 151°
2026-05-05 21:44 38.60722 -76.88320 9293 ft 381 kts 152°
2026-05-05 21:44 38.58452 -76.86525 9787 ft 386 kts 153°
2026-05-05 21:44 38.56226 -76.84576 9967 ft 389 kts 149°
2026-05-05 21:44 38.54002 -76.82607 10014 ft 387 kts 152°
2026-05-05 21:45 38.51754 -76.80709 10020 ft 387 kts 152°
2026-05-05 21:45 38.49537 -76.78832 10016 ft 387 kts 152°
2026-05-05 21:45 38.47290 -76.76928 10031 ft 388 kts 152°
2026-05-05 21:45 38.45033 -76.75012 10328 ft 390 kts 152°
2026-05-05 21:46 38.42731 -76.73187 10805 ft 387 kts 158°
2026-05-05 21:46 38.40253 -76.71868 11299 ft 387 kts 164°
2026-05-05 21:46 38.37716 -76.70835 11789 ft 386 kts 173°
2026-05-05 21:46 38.35062 -76.70306 12304 ft 386 kts 178°
2026-05-05 21:47 38.32382 -76.69900 12815 ft 390 kts 178°
2026-05-05 21:47 38.29673 -76.69503 13340 ft 394 kts 178°
2026-05-05 21:47 38.26928 -76.69117 13849 ft 399 kts 178°
2026-05-05 21:47 38.24153 -76.68738 14317 ft 401 kts 178°
2026-05-05 21:48 38.21359 -76.68366 14811 ft 403 kts 178°
2026-05-05 21:48 38.18595 -76.67940 15285 ft 408 kts 175°
2026-05-05 21:48 38.15779 -76.67389 15778 ft 410 kts 175°
2026-05-05 21:48 38.12944 -76.66837 16279 ft 414 kts 175°
2026-05-05 21:49 38.10072 -76.66410 16788 ft 415 kts 179°
2026-05-05 21:49 38.07174 -76.66193 17305 ft 419 kts 180°
2026-05-05 21:49 38.04219 -76.65981 17834 ft 430 kts 180°
2026-05-05 21:49 38.01236 -76.65778 18346 ft 437 kts 180°
2026-05-05 21:50 37.98188 -76.65577 18822 ft 439 kts 180°
2026-05-05 21:50 37.95115 -76.65377 19296 ft 443 kts 180°
2026-05-05 21:50 37.92025 -76.65180 19770 ft 446 kts 180°
2026-05-05 21:50 37.88915 -76.64982 20257 ft 449 kts 180°
2026-05-05 21:51 37.85780 -76.64786 20752 ft 452 kts 180°
2026-05-05 21:51 37.82631 -76.64803 21256 ft 453 kts 186°
2026-05-05 21:51 37.79519 -76.65399 21763 ft 452 kts 197°
2026-05-05 21:51 37.76611 -76.66794 22283 ft 451 kts 209°
2026-05-05 21:52 37.71774 -76.71790 23353 ft 453 kts 233°
2026-05-05 21:52 37.70091 -76.75164 23851 ft 455 kts 244°
2026-05-05 21:52 37.69306 -76.77622 24154 ft 456 kts 252°
2026-05-05 21:53 37.68658 -76.81542 24620 ft 459 kts 264°
2026-05-05 21:53 37.68832 -76.86885 25233 ft 462 kts 279°
2026-05-05 21:53 37.69736 -76.90782 25713 ft 464 kts 290°
2026-05-05 21:53 37.71219 -76.94403 26207 ft 464 kts 297°
2026-05-05 21:54 37.72292 -76.96802 26558 ft 463 kts 297°
2026-05-05 21:54 37.73797 -77.00385 27046 ft 460 kts 295°
2026-05-05 21:54 37.75236 -77.03926 27551 ft 457 kts 295°
2026-05-05 21:54 37.76689 -77.07509 28076 ft 454 kts 295°
2026-05-05 21:55 37.78092 -77.11063 28604 ft 449 kts 294°
2026-05-05 21:55 37.79456 -77.14613 29149 ft 446 kts 294°
2026-05-05 21:55 37.80804 -77.18142 29703 ft 443 kts 294°
2026-05-05 21:55 37.82143 -77.21659 30030 ft 445 kts 294°
2026-05-05 21:56 37.83465 -77.25147 30073 ft 444 kts 294°
2026-05-05 21:56 37.86188 -77.32184 30071 ft 444 kts 295°
2026-05-05 21:57 37.88972 -77.39164 30071 ft 444 kts 295°
2026-05-05 21:57 37.91749 -77.46109 30064 ft 443 kts 295°
2026-05-05 21:58 37.94540 -77.53076 30060 ft 443 kts 296°
2026-05-05 21:58 37.97336 -77.60040 30050 ft 442 kts 296°
2026-05-05 21:59 38.00120 -77.66957 30046 ft 441 kts 296°
2026-05-05 21:59 38.02904 -77.73900 30052 ft 440 kts 295°
2026-05-05 22:00 38.05496 -77.80904 30052 ft 440 kts 294°
2026-05-05 22:00 38.08088 -77.87943 30058 ft 439 kts 294°
2026-05-05 22:01 38.10668 -77.94930 30055 ft 438 kts 294°
2026-05-05 22:01 38.13267 -78.01944 30024 ft 437 kts 294°
2026-05-05 22:02 38.15855 -78.08893 30043 ft 437 kts 294°
2026-05-05 22:02 38.18466 -78.15881 30033 ft 436 kts 294°
2026-05-05 22:03 38.21060 -78.22807 30041 ft 435 kts 294°
2026-05-05 22:03 38.23676 -78.29775 30030 ft 435 kts 294°
2026-05-05 22:04 38.26284 -78.36690 30038 ft 435 kts 294°
2026-05-05 22:04 38.28916 -78.43629 30039 ft 435 kts 294°
2026-05-05 22:05 38.31558 -78.50559 30038 ft 435 kts 294°
2026-05-05 22:05 38.34209 -78.57502 30024 ft 434 kts 294°
2026-05-05 22:06 38.36856 -78.64357 30049 ft 433 kts 294°
2026-05-05 22:06 38.39514 -78.71265 30048 ft 432 kts 293°
2026-05-05 22:07 38.42090 -78.78205 30039 ft 433 kts 293°
2026-05-05 22:07 38.44677 -78.85150 30040 ft 433 kts 293°
2026-05-05 22:08 38.47259 -78.92051 30046 ft 433 kts 293°
2026-05-05 22:08 38.49827 -78.98897 30038 ft 433 kts 293°
2026-05-05 22:09 38.52479 -79.05935 30039 ft 433 kts 293°
2026-05-05 22:09 38.55081 -79.12824 30026 ft 433 kts 293°
2026-05-05 22:10 38.57643 -79.19787 30030 ft 432 kts 292°
2026-05-05 22:10 38.60162 -79.26781 30022 ft 432 kts 292°
2026-05-05 22:11 38.62666 -79.33727 30030 ft 432 kts 292°
2026-05-05 22:11 38.65186 -79.40722 30030 ft 432 kts 292°
2026-05-05 22:12 38.67707 -79.47711 30038 ft 432 kts 292°
2026-05-05 22:12 38.70208 -79.54657 30041 ft 432 kts 292°
2026-05-05 22:13 38.72732 -79.61650 30043 ft 431 kts 292°
2026-05-05 22:13 38.75248 -79.68603 30042 ft 432 kts 292°
2026-05-05 22:14 38.77780 -79.75581 30049 ft 431 kts 293°
2026-05-05 22:14 38.80307 -79.82570 30037 ft 431 kts 292°
2026-05-05 22:15 38.82744 -79.89602 30046 ft 431 kts 292°
2026-05-05 22:15 38.85172 -79.96604 30043 ft 431 kts 292°
2026-05-05 22:16 38.87608 -80.03606 30041 ft 431 kts 292°
2026-05-05 22:16 38.90060 -80.10646 30033 ft 431 kts 292°
2026-05-05 22:17 38.92519 -80.17687 30025 ft 431 kts 292°
2026-05-05 22:17 38.94967 -80.24682 30008 ft 431 kts 292°
2026-05-05 22:18 38.97436 -80.31712 29998 ft 431 kts 292°
2026-05-05 22:18 38.99896 -80.38702 29995 ft 431 kts 292°
2026-05-05 22:19 39.02380 -80.45726 29994 ft 430 kts 292°
2026-05-05 22:19 39.04866 -80.52744 29987 ft 430 kts 292°
2026-05-05 22:20 39.07358 -80.59757 29987 ft 430 kts 292°
2026-05-05 22:20 39.09748 -80.66764 29988 ft 429 kts 291°
2026-05-05 22:21 39.12143 -80.73824 29986 ft 429 kts 291°
2026-05-05 22:21 39.14530 -80.80846 29982 ft 429 kts 291°
2026-05-05 22:22 39.16932 -80.87894 29985 ft 429 kts 291°
2026-05-05 22:22 39.19339 -80.94951 29986 ft 429 kts 291°
2026-05-05 22:23 39.21732 -81.01962 29985 ft 429 kts 291°
2026-05-05 22:23 39.24139 -81.09011 29984 ft 429 kts 291°
2026-05-05 22:24 39.26546 -81.16050 29990 ft 428 kts 291°
2026-05-05 22:24 39.28942 -81.23050 29991 ft 429 kts 291°
2026-05-05 22:25 39.31364 -81.30100 29996 ft 429 kts 291°
2026-05-05 22:25 39.33789 -81.37155 29996 ft 429 kts 291°
2026-05-05 22:26 39.36206 -81.44162 29999 ft 429 kts 292°
2026-05-05 22:26 39.38593 -81.51240 29998 ft 428 kts 291°
2026-05-05 22:27 39.40926 -81.58346 29995 ft 428 kts 291°
2026-05-05 22:27 39.43246 -81.65402 29991 ft 429 kts 291°
2026-05-05 22:28 39.45594 -81.72511 29986 ft 430 kts 291°
2026-05-05 22:28 39.47952 -81.79638 29973 ft 430 kts 291°
2026-05-05 22:29 39.50313 -81.86758 29969 ft 431 kts 291°
2026-05-05 22:29 39.52685 -81.93904 29969 ft 431 kts 291°
2026-05-05 22:30 39.55050 -82.01023 29970 ft 432 kts 291°
2026-05-05 22:30 39.57430 -82.08185 29963 ft 433 kts 291°
2026-05-05 22:31 39.59826 -82.15368 29967 ft 434 kts 291°
2026-05-05 22:31 39.62235 -82.22572 29963 ft 435 kts 291°
2026-05-05 22:32 39.64636 -82.29734 29966 ft 436 kts 291°
2026-05-05 22:32 39.67064 -82.36967 29957 ft 437 kts 291°
2026-05-05 22:33 39.69499 -82.44209 29967 ft 437 kts 291°
2026-05-05 22:33 39.71911 -82.51426 29972 ft 438 kts 290°
2026-05-05 22:34 39.74250 -82.58743 29970 ft 438 kts 290°
2026-05-05 22:34 39.76500 -82.66121 29972 ft 438 kts 289°
2026-05-05 22:35 39.78767 -82.73450 29971 ft 439 kts 290°
2026-05-05 22:35 39.81093 -82.80801 29971 ft 440 kts 290°
2026-05-05 22:36 39.83377 -82.88186 29974 ft 440 kts 290°
2026-05-05 22:36 39.85730 -82.95565 29970 ft 440 kts 291°
2026-05-05 22:37 39.88075 -83.02935 29997 ft 440 kts 291°
2026-05-05 22:37 39.90405 -83.10278 29998 ft 440 kts 291°
2026-05-05 22:38 39.92351 -83.16421 30001 ft 441 kts 291°
2026-05-05 22:38 39.94685 -83.23815 29995 ft 441 kts 291°
2026-05-05 22:39 39.97020 -83.31225 29997 ft 441 kts 291°
2026-05-05 22:39 39.99337 -83.38597 29994 ft 441 kts 291°
2026-05-05 22:40 40.01666 -83.46027 30002 ft 442 kts 291°
2026-05-05 22:40 40.03992 -83.53464 29994 ft 442 kts 291°
2026-05-05 22:41 40.06319 -83.60918 29984 ft 443 kts 291°
2026-05-05 22:41 40.08627 -83.68339 29974 ft 443 kts 291°
2026-05-05 22:42 40.10948 -83.75801 29955 ft 442 kts 291°
2026-05-05 22:42 40.13268 -83.83252 29955 ft 442 kts 291°
2026-05-05 22:43 40.15574 -83.90648 29956 ft 441 kts 291°
2026-05-05 22:43 40.17898 -83.98091 29954 ft 441 kts 291°
2026-05-05 22:44 40.20202 -84.05471 29951 ft 440 kts 291°
2026-05-05 22:44 40.22522 -84.12887 29965 ft 440 kts 291°
2026-05-05 22:45 40.24855 -84.20307 29977 ft 440 kts 291°
2026-05-05 22:45 40.27186 -84.27685 29973 ft 440 kts 291°
2026-05-05 22:46 40.29478 -84.35129 29980 ft 439 kts 290°
2026-05-05 22:46 40.31732 -84.42595 29979 ft 440 kts 290°
2026-05-05 22:47 40.33981 -84.49994 29981 ft 439 kts 291°
2026-05-05 22:47 40.36260 -84.57455 29982 ft 440 kts 291°
2026-05-05 22:48 40.38551 -84.64903 29982 ft 440 kts 291°
2026-05-05 22:48 40.40846 -84.72328 29999 ft 440 kts 290°
2026-05-05 22:49 40.43060 -84.79822 30005 ft 440 kts 290°
2026-05-05 22:49 40.45281 -84.87320 30007 ft 440 kts 290°
2026-05-05 22:50 40.47500 -84.94772 30010 ft 440 kts 290°
2026-05-05 22:50 40.49741 -85.02273 30004 ft 440 kts 290°
2026-05-05 22:51 40.51976 -85.09726 30007 ft 440 kts 290°
2026-05-05 22:51 40.54231 -85.17221 30008 ft 441 kts 290°
2026-05-05 22:52 40.56493 -85.24718 30008 ft 441 kts 290°
2026-05-05 22:52 40.58763 -85.32233 30013 ft 441 kts 290°
2026-05-05 22:53 40.61014 -85.39691 30019 ft 441 kts 289°
2026-05-05 22:53 40.63192 -85.47228 29326 ft 437 kts 289°
2026-05-05 22:53 40.64269 -85.50930 28141 ft 438 kts 289°
2026-05-05 22:54 40.65362 -85.54674 27025 ft 436 kts 289°
2026-05-05 22:54 40.66450 -85.58388 26030 ft 432 kts 289°
2026-05-05 22:54 40.67524 -85.62045 25409 ft 424 kts 289°
2026-05-05 22:54 40.68600 -85.65699 25143 ft 430 kts 289°
2026-05-05 22:55 40.69685 -85.69373 25032 ft 429 kts 289°
2026-05-05 22:55 40.70770 -85.73040 25019 ft 429 kts 289°
2026-05-05 22:55 40.71848 -85.76671 25020 ft 430 kts 289°
2026-05-05 22:55 40.72941 -85.80340 25020 ft 430 kts 289°
2026-05-05 22:56 40.74033 -85.84006 25012 ft 429 kts 289°
2026-05-05 22:56 40.75130 -85.87679 25010 ft 430 kts 289°
2026-05-05 22:56 40.76228 -85.91358 25003 ft 429 kts 290°
2026-05-05 22:56 40.77326 -85.95024 25000 ft 429 kts 290°
2026-05-05 22:57 40.78409 -85.98639 24999 ft 429 kts 290°
2026-05-05 22:57 40.79508 -86.02300 24995 ft 429 kts 290°
2026-05-05 22:57 40.80608 -86.05964 24994 ft 429 kts 290°
2026-05-05 22:57 40.81714 -86.09630 24992 ft 429 kts 290°
2026-05-05 22:58 40.82818 -86.13290 24996 ft 428 kts 290°
2026-05-05 22:58 40.83913 -86.16908 24994 ft 428 kts 290°
2026-05-05 22:58 40.85023 -86.20570 25008 ft 428 kts 290°
2026-05-05 22:58 40.86133 -86.24220 25011 ft 428 kts 290°
2026-05-05 22:59 40.87239 -86.27859 25012 ft 428 kts 290°
2026-05-05 22:59 40.88353 -86.31520 25011 ft 428 kts 290°
2026-05-05 22:59 40.89464 -86.35171 25012 ft 428 kts 290°
2026-05-05 22:59 40.90566 -86.38790 25011 ft 428 kts 290°
2026-05-05 23:00 40.92800 -86.46110 25010 ft 428 kts 290°
2026-05-05 23:00 40.93917 -86.49764 25008 ft 428 kts 290°
2026-05-05 23:00 40.95041 -86.53432 25007 ft 429 kts 290°
2026-05-05 23:01 40.96164 -86.57092 25005 ft 428 kts 290°
2026-05-05 23:01 40.97276 -86.60692 25006 ft 429 kts 290°
2026-05-05 23:01 40.98407 -86.64358 25005 ft 429 kts 290°
2026-05-05 23:01 40.99534 -86.68009 25007 ft 429 kts 290°
2026-05-05 23:02 41.00663 -86.71674 25010 ft 429 kts 290°
2026-05-05 23:02 41.01792 -86.75339 25009 ft 429 kts 290°
2026-05-05 23:02 41.02922 -86.79008 25010 ft 430 kts 290°
2026-05-05 23:02 41.04046 -86.82693 25006 ft 429 kts 289°
2026-05-05 23:03 41.05026 -86.86350 24757 ft 424 kts 286°
2026-05-05 23:03 41.05892 -86.90067 24084 ft 420 kts 285°
2026-05-05 23:03 41.06733 -86.93764 23262 ft 416 kts 285°
2026-05-05 23:03 41.07679 -86.97368 22296 ft 411 kts 293°
2026-05-05 23:04 41.09185 -87.00588 21354 ft 409 kts 306°
2026-05-05 23:04 41.11226 -87.03204 20428 ft 409 kts 319°
2026-05-05 23:04 41.13680 -87.05043 19627 ft 410 kts 334°
2026-05-05 23:04 41.16458 -87.05950 19238 ft 419 kts 349°
2026-05-05 23:05 41.19406 -87.06008 19070 ft 428 kts
2026-05-05 23:05 41.22345 -87.05199 19009 ft 432 kts
2026-05-05 23:05 41.25258 -87.04230 19001 ft 433 kts
2026-05-05 23:05 41.28184 -87.03253 19000 ft 433 kts
2026-05-05 23:06 41.31110 -87.02278 19002 ft 433 kts
2026-05-05 23:06 41.34062 -87.01543 18997 ft 429 kts
2026-05-05 23:06 41.37027 -87.01088 18997 ft 429 kts
2026-05-05 23:06 41.39991 -87.00645 18998 ft 429 kts
2026-05-05 23:07 41.42963 -87.00198 18999 ft 429 kts
2026-05-05 23:07 41.45904 -86.99753 19001 ft 430 kts
2026-05-05 23:07 41.48878 -86.99301 18978 ft 428 kts
2026-05-05 23:07 41.51829 -86.98847 18630 ft 424 kts
2026-05-05 23:08 41.54752 -86.98392 17912 ft 422 kts
2026-05-05 23:08 41.57661 -86.97936 17056 ft 417 kts
2026-05-05 23:08 41.60525 -86.97484 16186 ft 411 kts
2026-05-05 23:08 41.63345 -86.97039 15354 ft 405 kts
2026-05-05 23:09 41.66085 -86.96606 14773 ft 393 kts
2026-05-05 23:09 41.68742 -86.96176 14434 ft 376 kts
2026-05-05 23:09 41.71321 -86.95755 13786 ft 371 kts
2026-05-05 23:09 41.73868 -86.95344 13068 ft 366 kts
2026-05-05 23:10 41.76389 -86.94947 12319 ft 363 kts
2026-05-05 23:10 41.78892 -86.94563 11609 ft 360 kts
2026-05-05 23:10 41.81340 -86.94202 10930 ft 357 kts
2026-05-05 23:10 41.83799 -86.93852 10345 ft 352 kts
2026-05-05 23:11 41.86239 -86.93513 10103 ft 355 kts
2026-05-05 23:11 41.88691 -86.93178 9997 ft 353 kts
2026-05-05 23:11 41.91125 -86.92843 9668 ft 349 kts
2026-05-05 23:11 41.93529 -86.92541 9201 ft 343 kts 356°
2026-05-05 23:12 41.95848 -86.93059 9032 ft 336 kts 334°
2026-05-05 23:12 41.97760 -86.94663 9007 ft 326 kts 313°
2026-05-05 23:12 41.99046 -86.97123 9005 ft 319 kts 290°
2026-05-05 23:12 41.99485 -87.00003 9007 ft 316 kts 270°
2026-05-05 23:13 41.99441 -87.02911 9002 ft 300 kts 266°
2026-05-05 23:13 41.99187 -87.05572 9003 ft 284 kts 262°
2026-05-05 23:13 41.98918 -87.08231 9000 ft 288 kts 262°
2026-05-05 23:13 41.98652 -87.10871 8828 ft 285 kts 262°
2026-05-05 23:14 41.98386 -87.13514 8361 ft 283 kts 262°
2026-05-05 23:14 41.98124 -87.16130 8086 ft 283 kts 262°
2026-05-05 23:14 41.97862 -87.18757 8007 ft 284 kts 262°
2026-05-05 23:14 41.97599 -87.21400 8000 ft 284 kts 262°
2026-05-05 23:15 41.97352 -87.24035 7999 ft 284 kts 264°
2026-05-05 23:15 41.97259 -87.26680 7999 ft 284 kts 268°
2026-05-05 23:15 41.97455 -87.29323 7999 ft 285 kts 282°
2026-05-05 23:15 41.97969 -87.31862 7999 ft 285 kts 284°
2026-05-05 23:16 41.98306 -87.34471 7998 ft 283 kts 267°
2026-05-05 23:16 41.97945 -87.37060 7879 ft 281 kts 259°
2026-05-05 23:16 41.97558 -87.39638 7477 ft 279 kts 258°
2026-05-05 23:16 41.97164 -87.42144 7128 ft 278 kts 258°
2026-05-05 23:17 41.96862 -87.44721 7015 ft 280 kts 264°
2026-05-05 23:17 41.96647 -87.47313 6882 ft 275 kts 264°
2026-05-05 23:17 41.96461 -87.49776 6783 ft 262 kts 266°
2026-05-05 23:17 41.96412 -87.52185 6496 ft 254 kts 270°
2026-05-05 23:18 41.96447 -87.54559 6004 ft 254 kts 271°
2026-05-05 23:18 41.96489 -87.56934 5492 ft 254 kts 271°
2026-05-05 23:18 41.96537 -87.59304 5067 ft 251 kts 271°
2026-05-05 23:18 41.96553 -87.60834 4985 ft 241 kts 269°
2026-05-05 23:19 41.96548 -87.63794 4994 ft 238 kts 269°
2026-05-05 23:19 41.96543 -87.65991 4984 ft 237 kts 269°
2026-05-05 23:19 41.96539 -87.68114 4774 ft 237 kts 269°
2026-05-05 23:19 41.96539 -87.70356 4244 ft 242 kts 269°
2026-05-05 23:20 41.96542 -87.72672 3535 ft 253 kts 269°
2026-05-05 23:20 41.96565 -87.74884 3332 ft 224 kts 269°
2026-05-05 23:20 41.96602 -87.76859 3008 ft 200 kts 269°
2026-05-05 23:20 41.96650 -87.78639 2786 ft 180 kts 269°
2026-05-05 23:21 41.96699 -87.80273 2431 ft 172 kts 269°
2026-05-05 23:21 41.96740 -87.81891 1793 ft 175 kts 265°
2026-05-05 23:21 41.96630 -87.83530 1071 ft 174 kts 267°
2026-05-05 23:21 41.96583 -87.85067 869 ft 153 kts 271°
2026-05-05 23:22 41.96579 -87.86647 823 ft 170 kts 272°
2026-05-05 23:22 41.96580 -87.88126 742 ft 148 kts 272°
2026-05-05 23:22 41.96580 -87.89390 681 ft 122 kts 272°
2026-05-05 23:22 41.96584 -87.90352 664 ft 66 kts 270°
2026-05-05 23:23 41.96589 -87.90597 668 ft 8 kts 271°
2026-05-05 23:23 41.96590 -87.90726 667 ft 25 kts 271°
2026-05-05 23:23 41.96596 -87.90974 668 ft 27 kts 272°
2026-05-05 23:23 41.96612 -87.91307 667 ft 28 kts 281°
2026-05-05 23:24 41.96682 -87.91536 672 ft 25 kts 302°
2026-05-05 23:24 41.96720 -87.91628 673 ft 0 kts 299°
2026-05-05 23:25 41.96721 -87.91629 673 ft 1 kts 299°
2026-05-05 23:25 41.96830 -87.91713 677 ft 28 kts
2026-05-05 23:26 41.97020 -87.91645 679 ft 28 kts 13°
2026-05-05 23:26 41.97220 -87.91599 675 ft 26 kts 38°
2026-05-05 23:26 41.97250 -87.91428 673 ft 19 kts 89°
2026-05-05 23:26 41.97314 -87.91257 672 ft 24 kts 45°
2026-05-05 23:27 41.97419 -87.91109 672 ft 27 kts 41°
2026-05-05 23:27 41.97590 -87.90959 670 ft 18 kts 21°
2026-05-05 23:27 41.97672 -87.90939 670 ft 15 kts
2026-05-05 23:27 41.97781 -87.90920 669 ft 12 kts
2026-05-05 23:28 41.97818 -87.90936 668 ft 0 kts 288°
2026-05-05 23:28 41.97821 -87.90960 668 ft 7 kts 279°
2026-05-05 23:28 41.97825 -87.90992 668 ft 0 kts 279°